星链-32495 (STARLINK-32495)

导读

STARLINK-32495是美国SpaceX星链星座的一员,于2024年11月21日发射升空,星链项目旨在构建全球卫星互联网星座,为全球提供高速低延迟网络覆盖,该卫星延续星链标准设计,加入低轨卫星星座,进一步拓展星链的服务覆盖范围与网络容量。

Basic Information
目录编号:
62052
目录名称:
STARLINK-32495
国际标识:
2024-216W
轨道中心:
EARTH
卫星名称:
星链-32495
卫星全名:
星链-32495 (STARLINK-32495)
卫星状态:
在轨 (已飞行652 天)
发射日期:
2024-11-21 UTC
国别 :
美国 (US)
星等 :
--
Orbit Information
数据来源 国际轨道数据
星历时间: 2026-09-04T15:07:46+0800
5小时前
查看轨道信息
半长轴: 6861.158km
偏心率: 0.0002586
轨道倾角: 43.007°
近地点辐角 286.478°
升交点赤经 334.360°
平近点角 73.579°
近地点: 481.246km
远地点: 484.796km
周期: 94.266分钟
每日圈数: 15.275895
Detailed Information
固有亮度:
5
最大亮度:
2.5
卫星平台:
Starlink V1.0
覆盖范围:
全球
运营商:
太空探索技术公司
运营商所在国:
美国
制造商(研发单位):
太空探索技术公司
制造商所在国:
美国
使用方式:
暂无
Satellite Introduction
Starlink 计划是 SpaceX 推出的全球卫星互联网项目,通过发射低轨道卫星,为全球尤其是偏远地区提供高速、低延迟的互联网服务。自 2019 年起,Starlink 已部署数千颗卫星,旨在缩小全球数字鸿沟,推动互联网普及。该项目还为军事、航空等行业提供通信支持,带来广泛经济效益。
2D Orbit Map
3D Orbit Map
Orbit Altitude Analysis Chart
Orbit Inclination Analysis Chart
Orbit Comprehensive Analysis Chart
View Comprehensive Chart
Conjunction Data List
Event ID Objects TCA Miss Dist (km) Collision Risk Probability Collision Risk Index (CRI) Action
CDM_260906-022905-878706-205221
2026-09-06T
02:29:57+0000
0.553 km
远距离
1.089713E-4 高风险 0.76
CDM_260906-005505-878706-205221
2026-09-06T
00:55:48+0000
1.473 km
极远距离
4.639213E-6 低风险 0.48
CDM_260905-215406-205206-402821
2026-09-05T
21:54:47+0000
1.760 km
极远距离
2.419872E-6 低风险 0.43
CDM_260901-132306-075006-205221
OBJECT F (60750)
2026-09-01T
13:23:08+0000
2.341 km
极远距离
1.365531E-6 低风险 0.38
CDM_260906-040405-878706-205221
2026-09-06T
04:04:06+0000
2.600 km
极远距离
1.135301E-6 低风险 0.36